Terminal Aerodrome Forecast
Issued by NWS La Crosse, WI

Home | Current Version | Previous Version | Text Only | Print | Product List | Glossary On
Versions: 1 2 3 4 5 6 7 8 9 10 11 12 13 14 15 16 17 18 19 20 21 22 23 24 25 26 27 28 29 30
000
FTUS43 KARX 250520
TAFRST
TAF
KRST 250520Z 2506/2606 12017KT P6SM SCT015 OVC035
     FM251400 08017G25KT P6SM BKN035
     FM252300 08011KT P6SM SCT035
     FM260200 08006KT P6SM SKC=

USA.gov is the U.S. government's official web portal to all federal, state and local government web resources and services.